#timestamp,LO_Frequency,Hit,Temp,Hum 
1479686415.7,286047002.3,N,0.0,0.0
1479686435.5,286047002.8,N,0.0,0.0
1479686455.3,286046999.9,N,0.0,0.0
1479686475.2,286046998.1,N,0.0,0.0
1479686495.0,286046998.7,N,0.0,0.0
1479686495.9,286046998.7,N,0.0,0.0
1479686515.8,286046999.1,N,0.0,0.0
1479686535.6,286046998.7,N,0.0,0.0
1479686555.4,286046999.2,N,0.0,0.0
1479686575.3,286046999.6,N,0.0,0.0
1479686595.1,286046997.2,N,0.0,0.0
1479686615.9,286046997.1,N,0.0,0.0
1479686635.7,286046997.9,N,0.0,0.0
1479686655.5,286046995.2,N,0.0,0.0
1479686675.4,286046995.6,N,0.0,0.0
1479686695.2,286046995.3,N,0.0,0.0
1479686715.0,286046996.2,N,0.0,0.0
1479686715.9,286046996.2,N,0.0,0.0
1479686735.8,286046996.4,N,0.0,0.0
1479686755.6,286046993.5,N,0.0,0.0
1479686775.5,286046996.2,N,0.0,0.0
1479686795.3,286046995.8,N,0.0,0.0
1479686815.1,286046995.5,N,0.0,0.0
1479686835.9,286046996.4,N,0.0,0.0
1479686855.7,286046993.8,N,0.0,0.0
1479686875.6,286046994.7,N,0.0,0.0
1479686895.4,286046994.6,N,0.0,0.0
1479686915.2,286046994.6,N,0.0,0.0
1479686935.1,286046992.2,N,0.0,0.0
1479686936.0,286046992.2,N,0.0,0.0
1479686955.8,286046993.1,N,0.0,0.0
1479686975.6,286046990.1,N,0.0,0.0
1479686995.5,286046993.1,N,0.0,0.0
1479687015.3,286046992.5,N,0.0,0.0
1479687035.2,286046992.6,N,0.0,0.0
1479687055.9,286046992.0,N,0.0,0.0
1479687075.7,286046990.1,N,0.0,0.0
1479687095.6,286046992.0,N,0.0,0.0
1479687115.4,286046993.1,N,0.0,0.0
1479687135.2,286046990.2,N,0.0,0.0
1479687155.1,286046990.1,N,0.0,0.0
1479687156.0,286046990.1,N,0.0,0.0
1479687175.8,286046992.5,N,0.0,0.0
1479687195.7,286046990.4,N,0.0,0.0
1479687215.5,286046990.2,N,0.0,0.0
1479687235.3,286046990.4,N,0.0,0.0
1479687255.2,286046992.6,N,0.0,0.0
1479687275.0,286046990.6,N,0.0,0.0
1479687275.9,286046990.6,N,0.0,0.0
1479687295.8,286046990.2,N,0.0,0.0
1479687315.6,286046990.6,N,0.0,0.0
1479687335.4,286046992.4,N,0.0,0.0
1479687355.3,286046992.5,N,0.0,0.0
1479687375.1,286046992.8,N,0.0,0.0
1479687395.8,286046990.6,N,0.0,0.0
1479687415.7,286046992.5,N,0.0,0.0
1479687435.5,286046992.5,N,0.0,0.0
1479687455.4,286046992.7,N,0.0,0.0
1479687475.2,286046993.1,N,0.0,0.0
1479687495.0,286046992.1,N,0.0,0.0
1479687495.9,286046992.1,N,0.0,0.0
1479687515.8,286046991.9,N,0.0,0.0
1479687535.6,286046992.2,N,0.0,0.0
1479687555.5,286046992.1,N,0.0,0.0
1479687575.3,286046994.6,N,0.0,0.0
1479687595.1,286046994.3,N,0.0,0.0
1479687615.9,286046994.7,N,0.0,0.0
1479687635.7,286046994.3,N,0.0,0.0
1479687655.5,286046993.6,N,0.0,0.0
1479687675.4,286046994.5,N,0.0,0.0
1479687695.2,286046994.2,N,0.0,0.0
1479687715.1,286046991.8,N,0.0,0.0
1479687716.0,286046991.8,N,0.0,0.0
1479687735.8,286046993.6,N,0.0,0.0
1479687755.6,286046994.7,N,0.0,0.0
1479687775.5,286046994.1,N,0.0,0.0
1479687795.3,286046994.1,N,0.0,0.0
1479687815.2,286046995.6,N,0.0,0.0
1479687835.9,286046995.8,N,0.0,0.0
1479687855.7,286046995.7,N,0.0,0.0
1479687875.6,286046995.1,N,0.0,0.0
1479687895.4,286046998.0,N,0.0,0.0
1479687915.2,286046997.7,N,0.0,0.0
1479687935.1,286046997.9,N,0.0,0.0
1479687936.0,286046997.9,N,0.0,0.0
1479687955.8,286046997.6,N,0.0,0.0
1479687975.7,286046997.1,N,0.0,0.0
1479687995.5,286046997.1,N,0.0,0.0
1479688015.3,286046997.8,N,0.0,0.0
1479688035.2,286046995.3,N,0.0,0.0
1479688055.0,286046997.3,N,0.0,0.0
1479688055.9,286046997.3,N,0.0,0.0
1479688075.8,286046997.9,N,0.0,0.0
1479688095.6,286046998.0,N,0.0,0.0
1479688115.4,286046997.9,N,0.0,0.0
1479688135.3,286046997.0,N,0.0,0.0
1479688155.1,286046997.8,N,0.0,0.0
1479688175.8,286046994.9,N,0.0,0.0
1479688195.7,286046997.8,N,0.0,0.0
1479688215.5,286046997.3,N,0.0,0.0
1479688235.4,286046997.0,N,0.0,0.0
1479688255.2,286046996.7,N,0.0,0.0
1479688275.0,286046997.6,N,0.0,0.0
1479688275.9,286046997.6,N,0.0,0.0
1479688295.8,286046996.5,N,0.0,0.0
1479688315.6,286046996.6,N,0.0,0.0
1479688335.4,286046996.8,N,0.0,0.0
1479688355.3,286046996.6,N,0.0,0.0
1479688375.1,286047001.2,N,0.0,0.0
1479688395.9,286046998.2,N,0.0,0.0
1479688415.7,286046998.7,N,0.0,0.0
1479688435.5,286047000.4,N,0.0,0.0
1479688455.4,286047000.4,N,0.0,0.0
1479688475.2,286046999.9,N,0.0,0.0
1479688495.0,286047000.6,N,0.0,0.0
1479688496.0,286047000.6,N,0.0,0.0
1479688515.8,286047000.6,N,0.0,0.0
1479688535.6,286047000.8,N,0.0,0.0
1479688555.5,286046998.2,N,0.0,0.0
1479688575.3,286046998.1,N,0.0,0.0
1479688595.1,286047000.0,N,0.0,0.0
1479688615.9,286046999.7,N,0.0,0.0
1479688635.7,286047000.2,N,0.0,0.0
1479688655.6,286047002.8,N,0.0,0.0
1479688675.4,286047001.9,N,0.0,0.0
1479688695.2,286047001.9,N,0.0,0.0
1479688715.1,286046999.7,N,0.0,0.0
1479688716.0,286046999.7,N,0.0,0.0
1479688735.8,286047000.1,N,0.0,0.0
1479688755.6,286046998.5,N,0.0,0.0
1479688775.5,286046998.8,N,0.0,0.0
1479688795.3,286046998.8,N,0.0,0.0
1479688815.2,286046999.4,N,0.0,0.0
1479688835.9,286047000.8,N,0.0,0.0
1479688855.7,286047002.4,N,0.0,0.0
1479688875.6,286047000.0,N,0.0,0.0
1479688895.4,286046998.6,N,0.0,0.0
1479688915.3,286046999.4,N,0.0,0.0
1479688935.1,286046998.7,N,0.0,0.0
1479688936.0,286046998.7,N,0.0,0.0
1479688955.8,286047000.8,N,0.0,0.0
1479688975.7,286046998.3,N,0.0,0.0
1479688995.5,286047000.5,N,0.0,0.0
1479689015.3,286047001.0,N,0.0,0.0
1479689035.2,286047001.1,N,0.0,0.0
1479689055.0,286047002.4,N,0.0,0.0
1479689055.9,286047002.4,N,0.0,0.0
1479689075.8,286047001.1,N,0.0,0.0
1479689095.6,286047002.7,N,0.0,0.0
1479689115.4,286047002.4,N,0.0,0.0
1479689135.3,286047000.1,N,0.0,0.0
1479689155.1,286047001.5,N,0.0,0.0
1479689175.8,286047003.6,N,0.0,0.0
1479689195.7,286047003.9,N,0.0,0.0
1479689215.5,286047003.2,N,0.0,0.0
1479689235.4,286047004.0,N,0.0,0.0
1479689255.2,286047001.7,N,0.0,0.0
1479689275.0,286047000.6,N,0.0,0.0
1479689275.9,286047000.6,N,0.0,0.0
1479689295.8,286046999.9,N,0.0,0.0
1479689315.6,286047002.6,N,0.0,0.0
1479689335.5,286047000.0,N,0.0,0.0
1479689355.3,286047001.2,N,0.0,0.0
1479689375.1,286046998.3,N,0.0,0.0
1479689395.9,286046998.8,N,0.0,0.0
1479689415.7,286046998.2,N,0.0,0.0
1479689435.5,286046996.6,N,0.0,0.0
1479689455.4,286046999.3,N,0.0,0.0
1479689475.2,286046998.8,N,0.0,0.0
1479689495.1,286046999.3,N,0.0,0.0
1479689496.0,286046999.3,N,0.0,0.0
1479689515.8,286046999.1,N,0.0,0.0
1479689535.6,286046998.9,N,0.0,0.0
1479689555.5,286046999.2,N,0.0,0.0
1479689575.3,286047000.7,N,0.0,0.0
1479689595.1,286047001.8,N,0.0,0.0
1479689615.9,286047003.6,N,0.0,0.0
1479689635.7,286047001.7,N,0.0,0.0
1479689655.6,286047004.1,N,0.0,0.0
1479689675.4,286047003.7,N,0.0,0.0
1479689695.2,286047001.7,N,0.0,0.0
1479689715.1,286047003.5,N,0.0,0.0
1479689716.0,286047003.5,N,0.0,0.0
1479689735.8,286047005.8,N,0.0,0.0
1479689755.7,286047005.7,N,0.0,0.0
1479689775.5,286047003.6,N,0.0,0.0
1479689795.3,286047003.3,N,0.0,0.0
1479689815.2,286047005.3,N,0.0,0.0
1479689835.9,286047005.2,N,0.0,0.0
1479689855.7,286047006.7,N,0.0,0.0
1479689875.6,286047009.0,N,0.0,0.0
1479689895.4,286047010.8,N,0.0,0.0
1479689915.3,286047006.5,N,0.0,0.0
1479689935.1,286047006.4,N,0.0,0.0
1479689936.0,286047006.4,N,0.0,0.0
1479689955.8,286047006.8,N,0.0,0.0
1479689975.7,286047006.1,N,0.0,0.0
1479689995.5,286047006.7,N,0.0,0.0
